KLM3566 LGKF-LMML

Flight info

Callsign KLM3566
Flight time 0h 59m
Altitude 35000
Route RUTOM DCT LORED DCT KEKOR
Aircraft B738/M-SDE2E3FGHIRWXY/LB1

Departure

Time 2026-04-17 19:15
Airport Kefallinia Airport (LGKF)

Arrival

Time 2026-04-17 20:14
Airport Malta International Airport (LMML)
Time Latitude Longitude Altitude Speed Heading
2026-04-17 18:58 38.11911 20.50421 12 ft 0 kts 57°
2026-04-17 19:08 38.11905 20.50410 67 ft 2 kts 57°
2026-04-17 19:09 38.11899 20.50398 67 ft 2 kts 57°
2026-04-17 19:09 38.11893 20.50386 80 ft 2 kts 56°
2026-04-17 19:09 38.11887 20.50374 56 ft 2 kts 56°
2026-04-17 19:09 38.11880 20.50363 56 ft 2 kts 56°
2026-04-17 19:10 38.11874 20.50351 57 ft 2 kts 56°
2026-04-17 19:10 38.11868 20.50339 57 ft 2 kts 63°
2026-04-17 19:10 38.11866 20.50325 57 ft 2 kts 144°
2026-04-17 19:11 38.11858 20.50332 57 ft 5 kts 145°
2026-04-17 19:11 38.11817 20.50360 67 ft 7 kts 169°
2026-04-17 19:11 38.11766 20.50340 61 ft 9 kts 206°
2026-04-17 19:12 38.11698 20.50325 62 ft 11 kts 169°
2026-04-17 19:12 38.11627 20.50369 63 ft 13 kts 149°
2026-04-17 19:12 38.11520 20.50457 58 ft 22 kts 146°
2026-04-17 19:12 38.11390 20.50566 59 ft 22 kts 146°
2026-04-17 19:13 38.11263 20.50673 50 ft 22 kts 146°
2026-04-17 19:13 38.11145 20.50737 53 ft 13 kts 172°
2026-04-17 19:13 38.11132 20.50795 49 ft 12 kts
2026-04-17 19:13 38.11190 20.50732 56 ft 0 kts 325°
2026-04-17 19:14 38.11191 20.50732 56 ft 1 kts 326°
2026-04-17 19:14 38.11341 20.50603 56 ft 61 kts 325°
2026-04-17 19:14 38.11898 20.50137 60 ft 128 kts 326°
2026-04-17 19:14 38.12787 20.49376 150 ft 171 kts 326°
2026-04-17 19:15 38.13753 20.48513 873 ft 170 kts 323°
2026-04-17 19:15 38.14722 20.47601 1508 ft 183 kts 327°
2026-04-17 19:15 38.15773 20.46642 2276 ft 181 kts 324°
2026-04-17 19:15 38.16660 20.45674 3409 ft 163 kts 322°
2026-04-17 19:16 38.17656 20.44810 3807 ft 185 kts 333°
2026-04-17 19:16 38.18797 20.43927 4380 ft 198 kts 328°
2026-04-17 19:16 38.19964 20.42898 4926 ft 211 kts 327°
2026-04-17 19:16 38.21243 20.41779 5237 ft 236 kts 326°
2026-04-17 19:17 38.22579 20.40535 5912 ft 240 kts 326°
2026-04-17 19:17 38.23903 20.39314 6953 ft 228 kts 326°
2026-04-17 19:17 38.25173 20.38130 7828 ft 229 kts 322°
2026-04-17 19:17 38.26195 20.36453 8140 ft 258 kts 298°
2026-04-17 19:18 38.26730 20.34162 8474 ft 282 kts 279°
2026-04-17 19:18 38.26618 20.31637 9166 ft 293 kts 256°
2026-04-17 19:18 38.25849 20.29211 9933 ft 298 kts 248°
2026-04-17 19:18 38.24967 20.26769 10369 ft 314 kts 247°
2026-04-17 19:19 38.24005 20.24161 10544 ft 337 kts 246°
2026-04-17 19:19 38.22972 20.21388 10871 ft 353 kts 246°
2026-04-17 19:19 38.21910 20.18540 11511 ft 358 kts 246°
2026-04-17 19:19 38.21146 20.15542 12229 ft 358 kts 266°
2026-04-17 19:20 38.21283 20.12447 12972 ft 357 kts 285°
2026-04-17 19:20 38.22041 20.09435 13715 ft 359 kts 291°
2026-04-17 19:20 38.22915 20.06430 14345 ft 364 kts 292°
2026-04-17 19:20 38.23814 20.03411 15078 ft 366 kts 292°
2026-04-17 19:21 38.24715 20.00365 15782 ft 370 kts 292°
2026-04-17 19:21 38.25612 19.97281 16470 ft 373 kts 292°
2026-04-17 19:21 38.26506 19.94163 17181 ft 377 kts 291°
2026-04-17 19:21 38.27404 19.91008 17836 ft 381 kts 291°
2026-04-17 19:22 38.28308 19.87817 18449 ft 386 kts 291°
2026-04-17 19:22 38.29216 19.84599 19080 ft 387 kts 291°
2026-04-17 19:22 38.30129 19.81362 19690 ft 390 kts 291°
2026-04-17 19:22 38.31049 19.78099 20204 ft 395 kts 291°
2026-04-17 19:23 38.31980 19.74792 20807 ft 397 kts 291°
2026-04-17 19:23 38.33805 19.68093 21893 ft 404 kts 290°
2026-04-17 19:23 38.34700 19.64733 22402 ft 408 kts 291°
2026-04-17 19:24 38.35615 19.61294 22932 ft 411 kts 290°
2026-04-17 19:24 38.36536 19.57828 23457 ft 414 kts 290°
2026-04-17 19:24 38.37463 19.54342 23886 ft 417 kts 290°
2026-04-17 19:24 38.38398 19.50828 24338 ft 420 kts 290°
2026-04-17 19:25 38.39339 19.47292 24758 ft 422 kts 290°
2026-04-17 19:25 38.40284 19.43734 25210 ft 424 kts 290°
2026-04-17 19:25 38.41230 19.40169 25652 ft 426 kts 290°
2026-04-17 19:25 38.42185 19.36572 25990 ft 430 kts 290°
2026-04-17 19:26 38.43145 19.32946 26376 ft 433 kts 289°
2026-04-17 19:26 38.44113 19.29283 26757 ft 436 kts 289°
2026-04-17 19:26 38.45082 19.25610 27144 ft 438 kts 289°
2026-04-17 19:26 38.46055 19.21913 27517 ft 441 kts 289°
2026-04-17 19:27 38.47035 19.18190 27867 ft 444 kts 289°
2026-04-17 19:27 38.48019 19.14443 28218 ft 446 kts 289°
2026-04-17 19:27 38.49008 19.10679 28555 ft 449 kts 288°
2026-04-17 19:27 38.49989 19.06934 28866 ft 452 kts 288°
2026-04-17 19:28 38.50673 19.03018 29148 ft 455 kts 272°
2026-04-17 19:28 38.50353 18.99009 29502 ft 456 kts 255°
2026-04-17 19:28 38.49201 18.95253 29854 ft 456 kts 239°
2026-04-17 19:28 38.47411 18.91916 30232 ft 455 kts 233°
2026-04-17 19:29 38.45532 18.88663 30582 ft 455 kts 232°
2026-04-17 19:29 38.43634 18.85422 30882 ft 456 kts 232°
2026-04-17 19:29 38.41735 18.82178 31283 ft 455 kts 233°
2026-04-17 19:29 38.39857 18.78949 31722 ft 452 kts 232°
2026-04-17 19:30 38.37996 18.75728 32118 ft 450 kts 232°
2026-04-17 19:30 38.36149 18.72513 32576 ft 448 kts 233°
2026-04-17 19:30 38.34318 18.69318 32955 ft 446 kts 232°
2026-04-17 19:30 38.32489 18.66120 33265 ft 447 kts 232°
2026-04-17 19:31 38.30657 18.62918 33583 ft 447 kts 231°
2026-04-17 19:31 38.28829 18.59725 33904 ft 447 kts 232°
2026-04-17 19:31 38.26988 18.56515 34088 ft 449 kts 232°
2026-04-17 19:31 38.25144 18.53302 34318 ft 449 kts 232°
2026-04-17 19:32 38.23306 18.50104 34686 ft 447 kts 233°
2026-04-17 19:32 38.21492 18.46951 34874 ft 446 kts 233°
2026-04-17 19:32 38.19661 18.43772 34926 ft 444 kts 233°
2026-04-17 19:33 38.16024 18.37470 34964 ft 442 kts 232°
2026-04-17 19:33 38.12355 18.31125 34969 ft 449 kts 233°
2026-04-17 19:34 38.08631 18.24694 34971 ft 454 kts 232°
2026-04-17 19:34 38.04870 18.18210 34960 ft 457 kts 232°
2026-04-17 19:35 38.01125 18.11766 34954 ft 449 kts 233°
2026-04-17 19:35 37.97430 18.05422 34959 ft 445 kts 232°
2026-04-17 19:36 37.93755 17.99123 34972 ft 444 kts 232°
2026-04-17 19:36 37.90051 17.92784 34983 ft 451 kts 233°
2026-04-17 19:37 37.86293 17.86372 34970 ft 455 kts 232°
2026-04-17 19:37 37.82512 17.79932 34977 ft 457 kts 232°
2026-04-17 19:38 37.78754 17.73539 34966 ft 452 kts 232°
2026-04-17 19:38 37.75043 17.67239 34964 ft 444 kts 231°
2026-04-17 19:39 37.71333 17.60955 34989 ft 449 kts 232°
2026-04-17 19:39 37.67561 17.54584 34982 ft 454 kts 231°
2026-04-17 19:40 37.63758 17.48173 34979 ft 457 kts 232°
2026-04-17 19:40 37.59981 17.41809 34977 ft 448 kts 232°
2026-04-17 19:41 37.56248 17.35532 34989 ft 446 kts 232°
2026-04-17 19:41 37.52548 17.29325 34983 ft 446 kts 231°
2026-04-17 19:42 37.48820 17.23082 34992 ft 446 kts 231°
2026-04-17 19:42 37.45089 17.16846 34987 ft 446 kts 232°
2026-04-17 19:43 37.41351 17.10607 34986 ft 446 kts 231°
2026-04-17 19:43 37.37603 17.04362 34987 ft 448 kts 231°
2026-04-17 19:44 37.33843 16.98116 34995 ft 449 kts 231°
2026-04-17 19:44 37.30068 16.91855 34993 ft 450 kts 231°
2026-04-17 19:45 37.26287 16.85594 34995 ft 450 kts 231°
2026-04-17 19:45 37.22521 16.79371 34996 ft 450 kts 231°
2026-04-17 19:46 37.18727 16.73112 34994 ft 451 kts 231°
2026-04-17 19:46 37.14934 16.66867 34992 ft 450 kts 231°
2026-04-17 19:47 37.11143 16.60635 34997 ft 449 kts 231°
2026-04-17 19:47 37.07351 16.54415 35001 ft 448 kts 231°
2026-04-17 19:48 37.03640 16.48334 34980 ft 425 kts 231°
2026-04-17 19:48 37.01870 16.45436 34974 ft 412 kts 231°
2026-04-17 19:48 37.00157 16.42636 34948 ft 399 kts 231°
2026-04-17 19:49 36.97415 16.38160 34796 ft 382 kts 230°
2026-04-17 19:49 36.95814 16.35550 34652 ft 374 kts 230°
2026-04-17 19:49 36.94245 16.32995 34488 ft 366 kts 230°
2026-04-17 19:49 36.92700 16.30481 34308 ft 365 kts 230°
2026-04-17 19:50 36.91144 16.27953 34150 ft 370 kts 230°
2026-04-17 19:50 36.89566 16.25391 34026 ft 374 kts 230°
2026-04-17 19:50 36.87979 16.22816 33886 ft 374 kts 230°
2026-04-17 19:50 36.86417 16.20280 33746 ft 372 kts 230°
2026-04-17 19:51 36.84840 16.17723 33601 ft 370 kts 231°
2026-04-17 19:51 36.83272 16.15182 33470 ft 369 kts 230°
2026-04-17 19:51 36.81707 16.12648 33310 ft 368 kts 230°
2026-04-17 19:51 36.80144 16.10119 33169 ft 368 kts 230°
2026-04-17 19:52 36.78582 16.07593 33027 ft 367 kts 230°
2026-04-17 19:52 36.77025 16.05076 32897 ft 366 kts 230°
2026-04-17 19:52 36.75471 16.02567 32761 ft 366 kts 230°
2026-04-17 19:52 36.73916 16.00060 32624 ft 365 kts 230°
2026-04-17 19:53 36.72360 15.97554 32471 ft 365 kts 232°
2026-04-17 19:53 36.70805 15.95048 32334 ft 366 kts 232°
2026-04-17 19:53 36.69242 15.92532 32195 ft 366 kts 232°
2026-04-17 19:53 36.67681 15.90019 32064 ft 367 kts 232°
2026-04-17 19:54 36.66135 15.87535 31946 ft 367 kts 232°
2026-04-17 19:54 36.64549 15.84987 31834 ft 367 kts 231°
2026-04-17 19:54 36.63005 15.82509 31725 ft 367 kts 231°
2026-04-17 19:54 36.61422 15.79970 31607 ft 366 kts 232°
2026-04-17 19:55 36.59861 15.77467 31512 ft 365 kts 232°
2026-04-17 19:55 36.58324 15.75006 31407 ft 364 kts 231°
2026-04-17 19:55 36.56772 15.72522 31299 ft 364 kts 231°
2026-04-17 19:55 36.55219 15.70037 31013 ft 365 kts 232°
2026-04-17 19:56 36.53639 15.67511 30196 ft 377 kts 232°
2026-04-17 19:56 36.51986 15.64872 28867 ft 398 kts 232°
2026-04-17 19:56 36.50233 15.62103 27714 ft 414 kts 231°
2026-04-17 19:56 36.48223 15.59533 27115 ft 414 kts 223°
2026-04-17 19:57 36.46085 15.57164 26774 ft 408 kts 221°
2026-04-17 19:57 36.43962 15.54865 26366 ft 403 kts 221°
2026-04-17 19:57 36.41847 15.52580 25834 ft 402 kts 221°
2026-04-17 19:57 36.39758 15.50311 25232 ft 397 kts 222°
2026-04-17 19:58 36.37694 15.48055 24661 ft 393 kts 222°
2026-04-17 19:58 36.35652 15.45814 24095 ft 390 kts 222°
2026-04-17 19:58 36.33633 15.43592 23535 ft 387 kts 222°
2026-04-17 19:58 36.31656 15.41414 22889 ft 384 kts 222°
2026-04-17 19:59 36.29645 15.39197 22244 ft 381 kts 222°
2026-04-17 19:59 36.27697 15.37051 21628 ft 378 kts 222°
2026-04-17 19:59 36.25734 15.34889 21029 ft 376 kts 222°
2026-04-17 19:59 36.23787 15.32746 20427 ft 374 kts 222°
2026-04-17 20:00 36.21849 15.30615 19840 ft 371 kts 222°
2026-04-17 20:00 36.19920 15.28496 19257 ft 369 kts 222°
2026-04-17 20:00 36.18004 15.26391 18690 ft 368 kts 222°
2026-04-17 20:00 36.16095 15.24297 18108 ft 366 kts 222°
2026-04-17 20:01 36.14196 15.22214 17475 ft 364 kts 222°
2026-04-17 20:01 36.12304 15.20142 16859 ft 362 kts 222°
2026-04-17 20:01 36.10425 15.18084 16248 ft 358 kts 222°
2026-04-17 20:01 36.08568 15.16051 15647 ft 354 kts 222°
2026-04-17 20:02 36.06734 15.14046 15054 ft 350 kts 222°
2026-04-17 20:02 36.04920 15.12064 14471 ft 346 kts 222°
2026-04-17 20:02 36.03126 15.10105 13916 ft 343 kts 222°
2026-04-17 20:02 36.01346 15.08162 13286 ft 340 kts 222°
2026-04-17 20:03 35.99587 15.06242 12675 ft 337 kts 222°
2026-04-17 20:03 35.97839 15.04336 12066 ft 334 kts 223°
2026-04-17 20:03 35.96128 15.02472 11470 ft 331 kts 222°
2026-04-17 20:03 35.94407 15.00597 10876 ft 328 kts 222°
2026-04-17 20:04 35.92707 14.98748 10292 ft 324 kts 222°
2026-04-17 20:04 35.91024 14.96918 9816 ft 318 kts 222°
2026-04-17 20:04 35.89412 14.95166 9673 ft 301 kts 223°
2026-04-17 20:04 35.87880 14.93502 9490 ft 286 kts 222°
2026-04-17 20:05 35.86390 14.91884 8998 ft 285 kts 222°
2026-04-17 20:05 35.84928 14.90296 8661 ft 277 kts 222°
2026-04-17 20:05 35.83484 14.88728 8126 ft 278 kts 221°
2026-04-17 20:05 35.82034 14.87154 7661 ft 276 kts 221°
2026-04-17 20:06 35.80589 14.85588 7179 ft 277 kts 221°
2026-04-17 20:06 35.79137 14.84016 6705 ft 276 kts 221°
2026-04-17 20:06 35.77693 14.82453 6288 ft 274 kts 221°
2026-04-17 20:06 35.76318 14.80919 6116 ft 261 kts 224°
2026-04-17 20:07 35.75057 14.79376 5939 ft 248 kts 225°
2026-04-17 20:07 35.73887 14.77926 5829 ft 229 kts 225°
2026-04-17 20:07 35.72801 14.76578 5606 ft 217 kts 225°
2026-04-17 20:07 35.71764 14.75303 5274 ft 211 kts 225°
2026-04-17 20:08 35.70739 14.74047 4960 ft 205 kts 225°
2026-04-17 20:08 35.69753 14.72843 4763 ft 195 kts 225°
2026-04-17 20:08 35.68840 14.71637 4453 ft 191 kts 239°
2026-04-17 20:08 35.68597 14.70138 4173 ft 176 kts 291°
2026-04-17 20:09 35.69217 14.68890 4057 ft 174 kts 309°
2026-04-17 20:09 35.69967 14.67672 3818 ft 180 kts 309°
2026-04-17 20:09 35.70726 14.66461 3616 ft 177 kts 313°
2026-04-17 20:09 35.71546 14.65359 3422 ft 172 kts 317°
2026-04-17 20:10 35.72381 14.64319 3231 ft 170 kts 317°
2026-04-17 20:10 35.73209 14.63294 3084 ft 167 kts 317°
2026-04-17 20:10 35.74038 14.62269 2887 ft 167 kts 317°
2026-04-17 20:10 35.74828 14.61288 2686 ft 157 kts 318°
2026-04-17 20:11 35.75576 14.60359 2468 ft 153 kts 317°
2026-04-17 20:11 35.76329 14.59426 2268 ft 154 kts 317°
2026-04-17 20:11 35.77080 14.58497 2068 ft 153 kts 316°
2026-04-17 20:11 35.77806 14.57598 1864 ft 144 kts 317°
2026-04-17 20:12 35.78502 14.56736 1677 ft 141 kts 317°
2026-04-17 20:12 35.79203 14.55868 1493 ft 144 kts 317°
2026-04-17 20:12 35.79909 14.54993 1296 ft 143 kts 316°
2026-04-17 20:12 35.80606 14.54125 1106 ft 141 kts 316°
2026-04-17 20:13 35.81303 14.53263 942 ft 143 kts 315°
2026-04-17 20:13 35.82004 14.52396 729 ft 141 kts 313°
2026-04-17 20:13 35.82688 14.51548 532 ft 139 kts 312°
2026-04-17 20:13 35.83350 14.50711 354 ft 131 kts 313°
2026-04-17 20:14 35.83946 14.49966 251 ft 104 kts 315°
2026-04-17 20:14 35.84303 14.49531 256 ft 41 kts 314°
2026-04-17 20:14 35.84431 14.49382 258 ft 19 kts 316°
2026-04-17 20:14 35.84525 14.49266 258 ft 21 kts 315°
2026-04-17 20:15 35.84645 14.49119 258 ft 28 kts 320°
2026-04-17 20:15 35.84807 14.48997 260 ft 27 kts 338°
2026-04-17 20:15 35.84919 14.48999 260 ft 12 kts 32°
2026-04-17 20:15 35.84979 14.48959 261 ft 12 kts 293°
2026-04-17 20:16 35.85004 14.48865 262 ft 11 kts 283°
2026-04-17 20:16 35.85025 14.48772 263 ft 11 kts 285°
2026-04-17 20:16 35.85043 14.48680 264 ft 11 kts 284°
2026-04-17 20:16 35.85078 14.48600 265 ft 11 kts 302°
2026-04-17 20:17 35.85122 14.48529 266 ft 10 kts 315°
2026-04-17 20:17 35.85172 14.48470 267 ft 10 kts 316°
2026-04-17 20:17 35.85221 14.48410 267 ft 10 kts 314°
2026-04-17 20:17 35.85271 14.48361 266 ft 9 kts 358°
2026-04-17 20:18 35.85315 14.48416 266 ft 9 kts 53°
2026-04-17 20:18 35.85354 14.48479 265 ft 9 kts 50°
2026-04-17 20:18 35.85403 14.48516 264 ft 0 kts